Location: Orinda
(37.8771°N, 122.1797°W)
Time: 23:58:50
(UTC+00:00)

PAYLOAD A - Pass Details

Date: 21 October 2019
Orbit: 692 x 832 km, 98.3° (Epoch: 14 November)

Event Time Altitude Azimuth Distance (km) Brightness Sun altitude
Rises 13:02:37 0° 3° (N) 3,139 7.2 -16.5°
Reaches altitude 10° 13:04:59 10° 355° (N) 2,233 6.3 -16.1°
Maximum altitude 13:09:28 37° 289° (WNW) 1,152 4.4 -15.2°
Drops below altitude 10° 13:14:06 10° 223° (SW) 2,301 6.1 -14.3°
Sets 13:16:34 0° 215° (SW) 3,247 6.9 -13.8°
